Location: Unspecified
(0.0000°N, 0.0000°E)
Time: 21:20:09
(UTC+00:00)

Hubble Space Telescope - Pass Details

Date: 24 March 2023
Orbit: 527 x 530 km, 28.5° (Epoch: 30 March)

Event Time Altitude Azimuth Distance (km) Brightness Sun altitude
Rises 19:25:23 0° 246° (WSW) 2,653 5.5 -19.8°
Reaches altitude 10° 19:27:40 10° 251° (WSW) 1,763 4.4 -20.3°
Maximum altitude 19:31:40 57° 329° (NNW) 619 1.1 -21.3°
Enters shadow 19:32:31 46° 17° (NNE) 709 1.2 -21.6°
